Overview Statistics Trail Chart Weather Telemetry Raw packets
 

This is the latest recevied weather packets stored in our database for station/object SV9TNF-57. If no packets are shown the sender has not sent any weather packets the latest 10 day(s).

<< 94 95 96 97 98 99 100 >>
Time Temp. Humidity Pressure Rain* Wind** Luminosity Snow
1787960795 26.11° C 66% 995.4 hPa 0 mm 8.05 m/s, 2° - -
1787960495 26.11° C 65% 995.4 hPa 0 mm 9.83 m/s, 328° - -
1787960195 26.11° C 64% 995.4 hPa 0 mm 7.6 m/s, 317° - -
1787959895 26.11° C 62% 995.7 hPa 0 mm 7.6 m/s, 350° - -
1787959595 26.67° C 61% 995.7 hPa 0 mm 2.24 m/s, 301° - -
1787959295 26.67° C 60% 995.5 hPa 0 mm 7.6 m/s, 16° - -
1787958995 26.67° C 60% 995.7 hPa 0 mm 4.92 m/s, 18° - -
1787958695 26.67° C 59% 995.8 hPa 0 mm 8.94 m/s, 309° - -
1787958395 26.67° C 59% 995.7 hPa 0 mm 11.18 m/s, 345° - -
1787958095 26.67° C 58% 995.7 hPa 0 mm 7.6 m/s, 318° - -
1787957794 26.67° C 57% 995.4 hPa 0 mm 8.49 m/s, 357° - -
1787957494 26.67° C 58% 995.6 hPa 0 mm 6.71 m/s, 326° - -
1787957194 26.67° C 58% 995.6 hPa 0 mm 10.28 m/s, 316° - -
1787956894 27.22° C 56% 995.5 hPa 0 mm 11.18 m/s, 317° - -
1787956594 27.22° C 56% 995.6 hPa 0 mm 12.07 m/s, 338° - -
1787956294 27.22° C 55% 995.5 hPa 0 mm 13.41 m/s, 292° - -
1787955994 27.22° C 53% 995.6 hPa 0 mm 12.07 m/s, 313° - -
1787955694 27.22° C 53% 995.6 hPa 0 mm 8.94 m/s, 313° - -
1787955393 27.22° C 54% 995.6 hPa 0 mm 4.02 m/s, 310° - -
1787955093 27.22° C 54% 995.5 hPa 0 mm 7.15 m/s, 7° - -
1787954793 27.22° C 53% 995.7 hPa 0 mm 8.49 m/s, 313° - -
1787954493 27.22° C 53% 995.6 hPa 0 mm 7.6 m/s, 252° - -
1787954193 27.22° C 53% 995.9 hPa 0 mm 12.07 m/s, 17° - -
1787953893 27.78° C 53% 995.9 hPa 0 mm 6.71 m/s, 1° - -
1787953593 27.22° C 54% 995.8 hPa 0 mm 11.18 m/s, 59° - -

* Rain latest hour (hover to see other rain measurements)
** Current wind speed in m/s (hover to see current wind gust speed)